Regional Weather Roundup
Issued by NWS

Home | Current Version | Previous Version | Text Only | Print | Product List | Glossary Off
Versions: 1 2 3 4 5 6 7 8 9 10 11 12 13 14 15 16 17 18 19 20 21 22 23 24 25 26 27

000
ASUS45 KPSR 232210
RWRAZ

ARIZONA HOURLY REGIONAL WEATHER ROUNDUP
NATIONAL WEATHER SERVICE PHOENIX AZ
300 PM MST SAT SEP 23 2017

NOTE: FAIR INDICATES FEW OR NO CLOUDS BELOW 12,000 FEET WITH NO
SIGNIFICANT WEATHER AND/OR OBSTRUCTIONS TO VISIBILITY.

AZZ001>003-036-232300-
NORTHWEST ARIZONA

CITY           SKY/WX    TMP DP  RH WIND       PRES   REMARKS
BULLHEAD CITY  SUNNY     82  25  12 N9        29.74S
KINGMAN        MOSUNNY   69  29  22 N7G18     29.84S
$$

AZZ004>008-015-016-018-232300-
NORTH CENTRAL ARIZONA

CITY           SKY/WX    TMP DP  RH WIND       PRES   REMARKS
GRAND CANYON   PTSUNNY   58  15  18 SW13G24   29.88S
WILLIAMS       SUNNY     59  14  17 SW15G24   29.90S
PRESCOTT       SUNNY     66  19  16 SW14G23   29.86S
FLAGSTAFF      SUNNY     58  14  17 SW25G35   29.90S
PAYSON           N/A     66  14  13 SW14G21   29.88S
PAGE           MOSUNNY   73  20  13 W15G24    29.73S
$$

AZZ009>014-017-232300-
NORTHEAST ARIZONA

CITY           SKY/WX    TMP DP  RH WIND       PRES   REMARKS
WINSLOW        SUNNY     74  11   9 SW24G30   29.80S
SAINT JOHNS    SUNNY     73  27  18 SW30G43   29.82F
WINDOW ROCK    MOSUNNY   66  31  27 SW23G36   29.87F
SHOW LOW       SUNNY     64  25  22 S28G35    29.90S
$$

AZZ540-542>544-546-548-232300-
GREATER PHOENIX AREA

CITY           SKY/WX    TMP DP  RH WIND       PRES   REMARKS
PHOENIX        MOSUNNY   83  25  12 W6        29.70F
BUCKEYE        SUNNY     82  25  12 SW8       29.72F
GLENDALE       SUNNY     84  27  12 S8G18     29.73F
LUKE AFB       SUNNY     84  26  12 SW12      29.70F
DEER VALLEY    SUNNY     81  18   9 W13G23    29.73S
SCOTTSDALE     SUNNY     81  25  12 SW7       29.74F
MESA-FALCON    SUNNY     82  28  14 W8G16     29.73F
MESA-GATEWAY   SUNNY     82  27  13 SW7       29.73F
CHANDLER       SUNNY     82  23  11 W5        29.72F
$$

AZZ539-553-232300-
SOUTHWEST MARICOPA COUNTY AND PINAL COUNTY

CITY           SKY/WX    TMP DP  RH WIND       PRES   REMARKS
CASA GRANDE    NOT AVBL
GILA BEND      FAIR      84  29  13 W6        29.70F
$$

AZZ503-504-507>509-232300-
SOUTHEAST ARIZONA

CITY           SKY/WX    TMP DP  RH WIND       PRES   REMARKS
TUCSON         SUNNY     84  31  14 NW10G23   29.76F
DAVIS-MONTHAN  MOSUNNY   85  32  15 W16G22    29.74F
RYAN FIELD     SUNNY     84  32  15 MISG      29.76F
NOGALES        MOSUNNY   82  37  20 SW16      29.83S
SIERRA VISTA   MOSUNNY   78  35  21 SW17G24   29.86S
DOUGLAS        MOSUNNY   80  46  30 SW12G25   29.80F
SAFFORD        SUNNY     85  35  16 SW9       29.71F
$$

AZZ532-232300-
SOUTHWEST ARIZONA

CITY           SKY/WX    TMP DP  RH WIND       PRES   REMARKS
YUMA           SUNNY     84  34  16 VRB5      29.71F
$$

CAZ041-043-047-048-061-525>527-560>570-232300-
SOUTHERN CALIFORNIA

CITY           SKY/WX    TMP DP  RH WIND       PRES   REMARKS
DOWNTOWN L.A.  SUNNY     73  56  54 VRB6      29.83S
L.A. AIRPORT   MOSUNNY   70  57  63 W14       29.85S
SAN DIEGO      MOSUNNY   69  53  56 SW10      29.87S
BURBANK        SUNNY     72  50  45 S10       29.83S
ONTARIO        MOSUNNY   76  44  32 SW9G17    29.82S
RIVERSIDE      MOSUNNY   77  48  35 W13G20    29.81F
PALM SPRINGS   MOSUNNY   86  29  12 NW8G16    29.76F
EL CENTRO NAS  MOSUNNY   86  27  11 CALM      29.73F
IMPERIAL       SUNNY     85  32  15 N10       29.71F
BLYTHE         SUNNY     86  25  11 N12       29.72F
NEEDLES        SUNNY     85  27  12 N10G17    29.74F
$$

NVZ020-UTZ003-232300-
SOUTHERN NEVADA-UTAH

CITY           SKY/WX    TMP DP  RH WIND       PRES   REMARKS
LAS VEGAS      MOSUNNY   73  27  18 NW10G21   29.82S
SALT LAKE CITY CLOUDY    54  38  54 NW15      29.92S
$$

NMZ009-TXZ055-232300-
NEW MEXICO-WEST TEXAS

CITY           SKY/WX    TMP DP  RH WIND       PRES   REMARKS
ALBUQUERQUE    PTSUNNY   77  41  27 S28G37    29.78F
EL PASO        MOSUNNY   88  57  34 SE9       29.74F
$$


........................KEY........................
SKY/WX - SKY CONDITION/WEATHER
TMP    - TEMPERATURE IN FAHRENHEIT
DP     - DEW POINT IN FAHRENHEIT
RH     - RELATIVE HUMIDITY IN PERCENT
WIND   - DIRECTION AND SPEED IN MILES PER HOUR (MPH)
VRB    - VARIABLE WIND DIRECTION
PRES   - MEAN SEA LEVEL PRESSURE IN INCHES OF MERCURY
         F - FALLING PRESSURE   R - RISING PRESSURE
         S - STEADY PRESSURE
VSB    - VISIBILITY IN MILES
HX     - HEAT INDEX IN FAHRENHEIT
WCI    - WIND CHILL INDEX IN FAHRENHEIT
TC     - TEMPERATURE IN CELSIUS WHICH IS ALSO KNOWN AS
         TEMPERATURE IN CENTIGRADE
AFB    - AIR FORCE BASE
         LUKE AFB IS LUKE AIR FORCE BASE
         DAVIS-MONTHAN IS DAVIS-MONTHAN AIR FORCE BASE
NAS    - NAVAL AIR STATION
         EL CENTRO NAS IS EL CENTRO NAVAL AIR STATION
N/A    - NOT AVAILABLE





USA.gov is the U.S. government's official web portal to all federal, state and local government web resources and services.